Regional Weather Roundup
Issued by NWS

Home | Current Version | Previous Version | Text Only | Print | Product List | Glossary Off
Versions: 1 2 3 4 5 6 7 8 9 10 11 12 13 14 15 16 17 18 19 20 21 22 23 24 25 26 27 28 29 30 31 32 33 34 35 36 37 38 39 40 41 42 43 44 45 46 47 48 49 50

000
ASUS43 KLSX 191107
RWRMO

WEATHER SUMMARY FOR MISSOURI
NATIONAL WEATHER SERVICE SPRINGFIELD MO
500 AM CST FRI DEC 19 2014

NOTE: "FAIR" INDICATES FEW OR NO CLOUDS BELOW 12,000 FEET WITH NO
       SIGNIFICANT WEATHER AND/OR OBSTRUCTIONS TO VISIBILITY.
       CURRENT SKY AND/OR WEATHER CONDITIONS ARE NOT AVAILABLE FOR
       CHILLICOTHE AND FARMINGTON.

MOZ001>031-035>038-043-044-053-054-191200-
...NORTHERN AND WESTERN MISSOURI...

CITY           SKY/WX    TMP DP  RH WIND       PRES   REMARKS
KANSAS CTY INT CLOUDY    30  29  96 NW3       30.24S FOG
KANSAS C DTWN  CLOUDY    33  30  88 N5        30.25S FOG     WCI  29
LEE`S SUMMIT   CLOUDY    31  30  96 CALM      30.24S
ST JOSEPH      CLOUDY    30  27  88 S3        30.26F
CHILLICOTHE      N/A     31  27  85 CALM      30.28F
KIRKSVILLE     CLOUDY    28  26  92 CALM      30.27S

$$
MOZ066>068-077>081-088>096-101>105-191200-
...SOUTHWEST MISSOURI...

CITY           SKY/WX    TMP DP  RH WIND       PRES   REMARKS
SPRINGFIELD    CLOUDY    37  36  96 NE8       30.16F FOG
JOPLIN         FOG       36  35  96 N7        30.19F VSB 1/2

$$
MOZ032>034-039>042-045>050-055>058-069>072-191200-
...CENTRAL MISSOURI...

CITY           SKY/WX    TMP DP  RH WIND       PRES   REMARKS
COLUMBIA       CLOUDY    32  30  92 E5        30.25S FOG     WCI  27
JEFFERSON CITY CLOUDY    33  31  92 E6        30.26F FOG     WCI  28
ROLLA          FOG       32  31  96 NE5       30.21F VSB 1/4 WCI  27
SEDALIA        FOG       33  32  96 E3        30.25S VSB 3/4
WARRENSBURG    FOG       32  32 100 CALM      30.25S VSB 1
OSAGE BEACH    CLOUDY    34  32  93 NE5       30.22F WCI  30

$$
MOZ051-052-059>065-191200-
...EAST CENTRAL MISSOURI...

CITY           SKY/WX    TMP DP  RH WIND       PRES   REMARKS
ST LOUIS INTL  CLOUDY    34  26  72 NE3       30.28F
SPIRIT OF STL  CLOUDY    33  28  81 CALM      30.28F
ST CHARLES     CLOUDY    32  27  81 NE6       30.29F WCI  26

$$
MOZ072>076-082>087-097>100-106>115-191200-
...SOUTH CENTRAL AND SOUTHEAST MISSOURI...

CITY           SKY/WX    TMP DP  RH WIND       PRES   REMARKS
CAPE GIRARDEAU CLOUDY    33  29  85 NE7       30.25F WCI  27
FARMINGTON     CLOUDY    32  28  86 NW7       30.23F WCI  26
POPLAR BLUFF   CLOUDY    36  32  85 NE5       30.25R
WEST PLAINS    FOG       35  33  92 NE7       30.20R VSB 3/4 WCI  29

$$


USA.gov is the U.S. government's official web portal to all federal, state and local government web resources and services.